Regional Weather Roundup
Issued by NWS Boston, MA

Home | Current Version | Previous Version | Text Only | Print | Product List | Glossary On
Versions: 1 2 3 4 5 6 7 8 9 10 11 12 13 14 15 16 17 18 19 20 21 22 23 24 25 26 27 28
000
ASUS41 KBOX 311610
RWRBOX

REGIONAL WEATHER ROUNDUP
NATIONAL WEATHER SERVICE TAUNTON MA
1200 PM EDT FRI OCT 31 2014

NOTE:  "FAIR" INDICATES FEW OR NO CLOUDS BELOW 12,000 FEET WITH NO
SIGNIFICANT WEATHER AND/OR OBSTRUCTIONS TO VISIBILITY.  THE FOLLOWING
OBSERVATION LOCATIONS DO NOT REPORT PRESENT WEATHER...PROVINCETOWN...
SMITHFIELD...BLOCK ISLAND...KEENE...AND OXFORD.

MAZALL-311700-
EASTERN MASSACHUSETTS

CITY           SKY/WX    TMP DP  RH WIND       PRES   REMARKS
BOSTON         PTSUNNY   52  38  58 E12       30.03F
BEVERLY        PTSUNNY   51  34  52 E6        30.02F
LAWRENCE       CLOUDY    51  37  58 E5        30.05F
BEDFORD        CLOUDY    51  38  60 E8        30.02F
BLUE HILL        N/A     50  38  63 E12G21    30.00F
NORWOOD        PTSUNNY   53  39  59 VRB7      30.01F
MARSHFIELD     NOT AVBL
PLYMOUTH       CLOUDY    52  42  69 NE10      30.01F
TAUNTON        CLOUDY    54  40  59 NE6       30.00F
NEW BEDFORD    CLOUDY    54  42  64 NE9       29.99F
$$

MAZALL-311700-
CAPE COD AND THE ISLANDS

CITY           SKY/WX    TMP DP  RH WIND       PRES   REMARKS
FALMOUTH       CLOUDY    54  45  71 NE12      30.00F
HYANNIS        CLOUDY    56  44  64 NE10      29.98F
CHATHAM        CLOUDY    54  44  69 NE12      30.01F
PROVINCETOWN   CLOUDY    54   0  11 NE12G18   30.02F
NANTUCKET      PTSUNNY   58  44  60 E14       29.98F
MARTHAS VNYRD  CLOUDY    53  47  79 E9        29.99F
$$

MAZALL-311700-
CENTRAL AND WESTERN MASSACHUSETTS

CITY           SKY/WX    TMP DP  RH WIND       PRES   REMARKS
WORCESTER      CLOUDY    46  35  65 E7        30.00F
FITCHBURG      CLOUDY    50  34  54 E7        30.04F
ORANGE         CLOUDY    48  36  63 SW3       30.01F
SPRINGFIELD    CLOUDY    49  38  65 N5        30.01F
WESTFIELD      CLOUDY    49  36  61 N3        30.01F
NORTH ADAMS    MOSUNNY   48  34  58 E8        30.01F
PITTSFIELD     CLOUDY    45  36  70 E3        29.97F
$$

RIZALL-311700-
RHODE ISLAND

CITY           SKY/WX    TMP DP  RH WIND       PRES   REMARKS
PROVIDENCE     PTSUNNY   54  41  61 NE10      30.01F
NEWPORT        CLOUDY    55  43  63 NE9       29.99F
BLOCK ISLAND   CLOUDY    54  45  71 NE12G18   29.97F
SMITHFIELD     PTSUNNY   52  34  50 E8        30.00F
WESTERLY       CLOUDY    53  43  68 NE7       29.99F
$$

CTZALL-311700-
CONNECTICUT

CITY           SKY/WX    TMP DP  RH WIND       PRES   REMARKS
BRADLEY INTL   PTSUNNY   50  37  61 VRB3      30.00F
HARTFORD       PTSUNNY   50  39  66 VRB5      30.00F
BRIDGEPORT     PTSUNNY   53  41  63 NE9       29.98F
DANBURY        PTSUNNY   50  34  54 NE3       29.99F
GROTON         CLOUDY    52  43  71 NE9       29.98F
NEW HAVEN      PTSUNNY   55  41  59 N6        29.98F
CHESTER        NOT AVBL
MERIDEN        PTSUNNY   50  38  63 N5        29.99F
WILLIMANTIC    MOSUNNY   53  38  56 E8        29.99F
OXFORD         CLOUDY    48  36  61 E5        29.99F
$$

MEZ002-015-021-024-NHZ003-005-008-011-012-014-VTZ005-008-311700-
NORTHERN NEW ENGLAND

CITY           SKY/WX    TMP DP  RH WIND       PRES   REMARKS
PORTLAND ME    PTSUNNY   52  30  43 N5        30.06R
BANGOR ME      PTSUNNY   49  31  49 NW3       30.04F
CONCORD NH     CLOUDY    48  31  51 CALM      30.04F
MANCHESTER NH  CLOUDY    50  32  50 E8        30.03S
NASHUA NH      CLOUDY    49  35  58 E6        30.05R
PORTSMOUTH NH  CLOUDY    50  34  54 N6        30.03F
JAFFREY NH     CLOUDY    46  33  60 VRB6      30.02S
KEENE NH       CLOUDY    46  30  53 CALM      30.03S
BURLINGTON VT  MOSUNNY   47  30  51 VRB3      30.05F
MT. WASHINGTON FOG       23  23 100 NW16        N/A  VSB 1/16WCI  10
$$

NYZ052-076-311700-
EASTERN NEW YORK

CITY           SKY/WX    TMP DP  RH WIND       PRES   REMARKS
ALBANY         MOSUNNY   49  34  56 NE5       30.02F
NEW YORK CITY  CLOUDY    52  39  61 NE12      29.97F
$$

ANZALL-311700-
MARINE OBSERVATIONS

STATION/POSITION TIME  TEMP    WIND        PRES    VSBY  WAVE
                       AIR SEA DIR/SP/G                  HT/PER
                 (UTC) (F)     (DEG/KT/KT) (MB)    (MI)  (FT/S)
BOSTON BUOY      1550   50 54   80/ 12/ 14 1017.2F         2/ 4
BUZZARDS BAY     1500           50/ 16/ 18 1016.4F
NANTUCKET SOUND  1550   53 56   60/ 14/ 16 1015.4F         2/ 4
MASS BAY-STELLWA 1504   49 54   70/ 10/ 14   N/A    1 7/8  3/ 5
ISLE OF SHOALS   1600   49      60/  9/ 11 1016.6F
S OF BLOCK IS    1508      61                N/A           2/ 4
$$

......................KEY.........................
  SKY/WX - SKY CONDITION/PRESENT WEATHER
  TMP    - TEMPERATURE IN FAHRENHEIT
  DWPT   - DEWPOINT IN FAHRENHEIT
  RH     - RELATIVE HUMIDITY IN PERCENT
  WIND   - DIRECTION AND SPEED IN MPH
  PRES   - MEAN SEA LEVEL PRESSURE IN INCHES OF HG
  WCI    - WIND CHILL INDEX
  VSB    - VISIBILITY IN MILES
  HX     - HEAT INDEX
  TC     - TEMPERATURE IN CELSIUS
  VRB    - VARIABLE WIND DIRECTION
  N/A    - NOT AVAILABLE



USA.gov is the U.S. government's official web portal to all federal, state and local government web resources and services.